SCP
0 0 0 0 0 0 0 0 0 0 0 0 0 0 0 0 0 0 0 0 0 0 0 1 1 1 1 1 1 1 1 1 1 1 1 1 1 1 1 1 1 0 1 0
0 0 0 0 0 0 0 0 0 0 0 0 0 0 0 0 0 0 0 0 0 0 0 1 1 1 1 1 1 1 1 1 1 1 1 1 1 1 1 0 0 0 0 0
0 0 0 0 0 0 0 0 0 0 0 0 0 0 0 0 0 0 0 0 0 0 0 1 1 1 1 1 1 1 1 1 1 0 0 0 1 1 0 0 0 0 0 0
0 0 0 0 0 0 0 0 0 0 0 0 0 0 0 0 0 0 0 0 0 0 1 1 1 1 1 1 1 1 1 1 0 0 0 0 0 0 0 0 0 0 0 0
0 0 0 0 0 0 0 0 0 0 0 0 0 0 0 0 0 0 0 0 0 0 1 1 1 1 1 1 1 1 0 0 0 0 0 0 0 0 0 0 0 0 0 0
0 0 0 0 0 0 0 0 0 0 0 0 0 0 0 0 0 0 0 0 0 0 1 1 1 1 1 1 1 0 0 0 0 0 0 0 0 0 0 0 0 0 0 0
0 0 0 0 0 0 0 0 0 0 0 0 0 0 1 1 1 0 0 0 0 1 1 1 1 1 1 1 0 0 0 0 0 0 0 0 0 0 0 0 0 0 0 0
0 0 0 0 0 0 0 0 0 0 0 0 1 1 1 1 1 1 1 1 1 0 0 0 0 0 0 0 0 0 0 0 0 0 0 0 0 0 0 0 0 0 0 0
0 0 0 0 0 0 0 0 0 0 0 0 1 1 1 1 1 1 1 1 0 0 0 0 0 0 0 0 0 0 0 0 0 0 0 0 0 0 0 0 0 0 0 0
0 0 0 0 0 0 0 0 0 0 0 1 1 1 1 1 1 1 1 0 0 0 0 0 0 0 0 0 0 0 0 0 0 0 0 0 0 0 0 0 0 0 0 0
0 0 0 0 0 0 0 0 0 0 1 1 1 1 1 1 1 1 1 0 0 0 0 0 0 0 0 0 0 0 0 0 0 0 0 0 0 0 0 0 0 0 0 0
0 0 0 0 0 0 0 0 0 1 1 1 1 1 1 1 1 1 0 0 0 0 0 0 0 0 0 0 0 0 0 0 0 0 0 0 0 0 0 0 0 0 0 0
0 0 0 0 0 0 0 0 0 1 1 1 1 1 1 1 1 1 0 0 0 0 0 0 0 0 0 0 0 0 0 0 0 0 0 0 0 0 0 0 0 0 0 0
0 0 0 0 0 0 0 0 0 1 1 1 1 1 1 1 1 0 0 0 0 0 0 0 0 0 0 0 0 0 0 0 0 0 0 0 0 0 0 0 0 0 0 0
0 0 0 0 0 0 0 0 0 0 1 1 1 1 1 0 0 0 0 0 0 0 0 0 0 0 0 0 0 0 0 0 0 0 0 0 0 0 0 0 0 0 0 0
0 0 0 0 0 0 0 0 0 0 0 0 0 0 0 0 0 0 0 0 0 0 0 0 0 0 0 0 0 0 0 0 0 0 0 0 0 0 0 0 0 0 0 0
0 0 0 0 0 0 0 0 0 0 0 0 0 0 0 0 0 0 0 0 0 0 0 0 0 0 0 0 0 0 0 0 0 0 0 0 0 0 0 0 0 0 0 0
0 0 0 0 0 0 0 0 0 0 0 0 0 0 0 0 0 0 0 0 0 0 0 0 0 0 0 0 0 0 0 0 0 0 0 0 0 0 0 0 0 0 0 0
0 0 0 0 0 0 0 0 0 0 0 0 0 0 0 0 0 0 0 0 0 0 0 0 0 0 0 0 0 0 0 0 0 0 0 0 0 0 0 0 0 0 0 0
0 0 0 0 0 0 0 0 0 0 0 0 0 0 0 0 0 0 0 0 0 0 0 0 0 0 0 0 0 0 0 0 0 0 0 0 0 0 0 0 0 0 0 0
0 0 0 0 0 0 0 0 0 0 0 0 0 0 0 0 0 0 0 0 0 0 0 0 0 0 0 0 0 0 0 0 0 0 0 0 0 0 0 0 0 0 0 0
0 0 0 0 0 0 0 0 0 0 0 0 0 0 0 0 0 0 0 0 0 0 0 0 0 0 0 0 0 0 0 0 0 0 0 0 0 0 0 0 0 0 0 0
0 0 0 0 0 0 0 0 0 0 0 0 0 0 0 0 0 0 0 0 0 0 0 0 0 0 0 0 0 0 0 0 0 0 0 0 0 0 0 0 0 0 0 0
0 0 0 0 0 0 0 0 0 0 0 0 0 0 0 0 0 0 0 0 0 0 0 0 0 0 0 0 0 0 0 0 0 0 0 0 0 0 0 0 0 0 0 0
0 0 0 0 0 0 0 0 0 0 0 0 0 0 0 0 0 0 0 0 0 0 0 0 0 0 0 0 0 0 0 0 0 0 0 0 0 0 0 0 0 0 0 0
0 0 0 0 0 0 0 0 0 0 0 0 0 0 0 0 0 0 0 0 0 0 0 0 0 0 0 0 0 0 0 0 0 0 0 0 0 0 0 0 0 0 0 0
0 0 0 0 0 0 0 0 0 0 0 0 0 0 0 0 0 0 0 0 0 0 0 0 0 0 0 0 0 0 0 0 0 0 0 0 0 0 0 0 0 0 0 0
Wind_Speed
7 5 5 6 8 8 10 9 8 6 5 2 5 5 5 5 6 6 6 6 5 4 4 4 4 3 2 2 2 1 1 1 1 1 1 1 1 1 1 0 0 1 1 2
8 7 7 8 8 9 9 9 8 6 4 2 4 5 5 6 5 5 5 5 5 5 4 4 4 3 3 3 2 2 1 2 2 2 1 1 2 1 0 0 1 1 1 1
8 8 9 10 9 9 9 8 7 7 3 5 6 6 6 6 5 5 4 4 4 4 4 4 3 3 3 3 2 2 2 3 2 2 2 2 2 2 1 1 1 1 2 2
6 7 11 4 2 6 7 7 7 5 3 5 5 6 5 5 5 4 4 3 4 4 4 4 4 4 3 3 3 3 2 3 3 2 2 2 2 2 2 1 1 1 1 1
7 9 9 5 4 5 6 6 4 4 3 5 6 6 6 5 5 4 4 4 4 4 4 5 4 4 3 3 3 3 3 3 2 1 1 1 1 1 2 1 1 2 1 1
8 10 10 3 4 4 7 7 4 4 5 7 8 7 5 8 7 6 5 5 4 4 5 5 4 4 3 4 4 3 3 2 2 1 1 1 1 1 1 1 2 2 1 2
10 10 7 2 3 6 8 2 3 4 5 8 7 0 7 9 8 6 6 5 5 4 4 4 4 3 3 3 3 2 2 1 1 1 1 0 1 1 1 2 2 2 2 2
9 11 6 3 4 4 2 3 1 3 3 4 5 7 9 9 8 7 6 5 5 4 4 4 3 3 3 3 2 2 1 1 1 1 1 1 1 1 1 2 2 2 2 2
4 2 3 1 1 2 2 1 1 2 3 5 7 8 8 8 8 7 6 5 4 4 4 4 3 2 2 2 2 1 1 1 1 1 2 2 1 1 1 2 2 2 2 2
4 2 1 0 0 1 1 1 1 2 4 7 8 8 8 8 7 6 6 5 4 4 4 4 3 3 2 2 1 1 1 1 1 1 1 1 2 1 2 2 2 3 3 3
5 3 2 1 1 1 1 1 2 4 5 7 8 8 8 7 7 6 5 4 4 3 4 4 3 3 2 2 1 1 1 1 1 1 1 1 1 2 2 3 3 3 4 4
4 1 3 1 1 1 1 2 3 5 6 6 7 8 7 7 6 6 5 4 4 3 3 3 3 2 2 2 1 1 1 1 1 1 1 1 1 1 3 2 1 1 3 4
4 4 3 1 1 0 1 2 4 5 6 6 7 7 7 7 6 6 5 4 3 3 3 3 2 2 2 1 0 1 1 2 2 2 2 2 2 2 2 1 1 2 3 2
4 3 3 2 1 1 2 4 5 6 6 6 7 7 7 7 6 6 5 4 3 3 3 2 2 2 1 1 1 1 2 1 2 2 2 2 2 3 2 2 2 1 2 3
4 4 3 2 2 3 4 5 6 6 7 7 6 6 6 6 5 5 4 4 4 3 3 2 1 1 1 1 1 2 2 1 2 2 2 2 3 3 3 3 3 2 2 0
3 3 4 4 4 4 5 5 5 6 6 6 6 5 5 5 5 4 4 4 3 3 2 1 1 1 0 1 1 1 1 2 3 3 3 2 2 3 3 3 3 3 3 3
4 5 5 5 5 4 4 4 4 5 5 5 5 5 5 5 5 5 4 3 3 2 2 1 1 0 0 1 2 2 1 0 2 3 3 3 3 3 3 3 3 4 4 3
3 4 4 4 4 4 4 4 4 4 4 5 5 5 5 5 5 4 4 3 3 2 2 1 1 0 0 1 2 3 2 2 2 3 3 3 3 3 4 3 3 4 4 1
2 2 3 3 3 3 3 4 4 4 4 5 5 5 5 4 4 4 4 3 3 2 1 1 1 1 0 1 2 2 2 2 2 2 2 2 3 3 3 3 3 3 4 3
1 2 3 3 3 3 3 4 4 4 4 5 5 5 5 4 4 4 4 3 2 1 2 1 2 1 1 0 3 2 2 2 2 1 2 3 3 3 3 3 4 4 4 3
2 2 3 3 3 3 4 4 4 4 4 4 5 5 4 4 4 4 4 3 2 2 2 2 2 1 1 1 3 2 2 2 2 2 2 3 3 3 3 3 4 4 4 4
2 2 3 4 3 3 3 3 4 4 4 4 4 4 4 4 4 3 3 1 2 2 2 2 1 2 2 3 2 1 1 2 2 2 2 2 2 2 3 3 3 4 3 4
2 2 2 3 3 3 3 3 3 3 4 4 4 4 3 2 2 2 2 2 2 3 2 0 2 2 3 3 2 2 2 2 3 2 2 2 2 2 3 3 3 4 4 4
2 2 2 2 3 3 3 3 3 2 3 3 3 3 3 3 3 2 2 3 3 2 2 2 4 3 5 3 2 2 2 2 2 2 2 2 2 2 2 3 3 3 3 4
2 2 2 3 3 2 3 3 3 3 3 2 3 3 2 1 1 1 1 2 3 3 2 4 6 5 4 2 2 2 2 2 2 2 2 2 2 2 2 2 3 3 3 3
2 2 2 2 1 1 2 2 2 2 2 2 1 1 1 2 2 2 2 2 3 3 3 2 2 3 3 2 2 2 2 2 2 3 2 2 2 2 2 3 3 3 3 3
2 2 2 2 2 2 1 2 2 1 1 1 1 2 2 1 1 2 2 1 1 2 2 1 2 2 2 2 2 2 2 2 2 2 2 2 2 2 2 3 2 2 3 3
Wind_Direction
257 258 238 233 232 227 238 257 267 264 263 214 174 177 154 144 148 147 145 141 137 135 125 121 112 105 98 91 80 82 100 83 64 46 41 28 28 27 33 352 287 268 254 251
234 235 234 242 240 234 240 250 254 261 253 127 160 155 149 153 156 154 148 144 139 134 127 119 113 107 100 91 89 89 86 75 61 46 44 33 14 24 6 301 299 290 282 267
233 225 235 236 236 236 236 238 247 250 226 149 168 165 165 162 164 159 143 143 140 134 127 121 114 105 101 91 89 88 79 63 51 30 22 17 2 2 342 299 278 265 265 260
242 225 239 238 224 241 242 242 249 255 207 176 168 159 156 159 160 152 139 140 135 130 126 117 107 103 97 92 85 78 69 63 47 26 16 10 356 344 323 303 282 267 258 260
244 239 240 208 197 221 235 233 236 229 192 169 148 152 157 154 150 142 138 131 125 128 122 115 112 109 107 96 80 67 50 43 36 26 26 6 346 324 315 311 295 280 273 275
237 249 245 226 169 208 234 225 191 199 181 172 178 206 158 149 144 139 134 128 126 124 119 116 113 115 116 97 80 61 46 37 34 32 39 8 328 304 311 296 283 279 300 292
239 247 247 105 151 194 226 226 149 196 190 188 198 243 112 134 137 133 126 122 120 115 107 106 111 114 106 89 75 60 57 31 24 32 17 356 340 311 298 294 307 294 292 284
233 243 236 91 177 219 336 19 165 186 184 176 143 120 129 136 135 132 127 122 119 114 106 105 111 118 108 89 71 56 50 33 20 5 332 40 20 334 317 299 276 267 272 281
251 263 46 136 271 318 318 278 220 197 169 157 145 140 140 138 135 132 127 121 120 117 113 107 108 110 102 87 83 71 41 31 12 358 347 357 352 347 311 299 302 315 307 311
247 241 304 243 316 357 346 342 151 157 155 154 146 142 140 137 133 130 125 122 120 117 111 100 90 82 85 95 94 81 37 14 352 345 356 12 337 340 335 329 320 321 323 324
237 244 230 196 10 22 49 73 110 128 139 144 143 143 142 139 135 132 128 125 124 118 109 100 92 88 88 88 75 23 2 356 337 353 6 344 340 352 328 352 346 319 322 322
256 271 270 237 30 16 81 89 115 127 132 136 142 142 139 137 136 135 131 127 124 115 110 108 102 91 80 78 64 340 322 319 321 328 352 320 326 348 26 350 27 303 313 311
290 295 300 305 278 240 118 108 120 131 133 136 135 136 136 134 135 133 129 128 127 124 121 118 111 98 86 68 16 326 321 326 321 327 324 300 299 300 308 324 227 226 242 268
270 264 239 229 204 144 136 126 125 125 126 129 129 133 133 131 131 133 130 133 129 127 123 118 111 94 75 46 332 312 305 347 308 305 302 298 299 296 295 298 297 297 220 209
241 243 237 198 178 156 153 146 140 135 129 128 131 136 136 134 132 130 130 134 133 137 124 114 105 85 41 321 315 312 315 330 324 316 298 300 301 296 297 302 304 304 309 185
239 216 201 191 179 169 168 158 149 142 139 139 137 137 137 134 133 132 134 140 146 132 118 120 113 71 348 323 326 309 341 16 322 304 299 303 304 309 312 312 309 314 325 335
218 202 191 189 183 178 173 164 156 150 152 151 147 146 147 147 145 139 143 144 138 130 134 138 114 38 314 298 298 301 308 58 265 289 311 323 321 318 319 317 320 325 320 348
233 226 210 193 181 175 172 167 158 156 156 153 153 154 156 156 152 143 145 140 137 134 128 115 95 211 272 300 306 308 304 310 309 319 325 324 324 317 307 304 312 314 316 334
206 193 189 184 179 177 173 166 160 154 150 150 154 155 155 156 151 150 151 153 159 167 152 109 128 218 228 1 312 278 297 306 312 324 322 323 292 294 304 310 315 318 319 328
174 176 177 173 174 173 168 163 155 147 150 154 155 156 159 162 160 162 166 172 168 126 138 142 205 247 268 305 287 285 295 298 301 303 293 291 294 303 308 312 314 317 323 328
146 146 146 144 145 157 157 153 154 158 164 165 166 167 165 165 171 173 177 171 133 125 139 165 217 244 289 330 257 287 294 290 283 283 282 285 295 305 313 320 319 317 319 320
121 122 129 132 139 146 143 151 158 164 166 166 166 165 168 173 173 175 176 170 149 150 196 199 199 50 338 288 274 303 299 290 285 285 286 296 306 311 316 322 321 318 322 321
117 117 130 133 136 137 138 145 155 162 159 158 160 169 179 180 184 188 186 177 174 167 217 172 77 98 275 264 278 274 280 285 287 290 295 300 304 313 321 323 323 324 324 324
130 136 140 134 132 140 146 146 144 148 149 159 164 170 185 189 183 179 164 153 147 171 228 128 151 197 240 253 269 274 276 283 287 294 297 297 304 314 319 316 315 322 328 331
134 137 138 150 159 163 151 153 157 161 170 159 153 163 187 182 167 154 167 146 147 190 220 166 178 204 232 257 265 272 278 293 299 300 293 298 302 306 310 308 308 312 322 326
145 149 132 155 150 156 163 171 175 163 165 160 153 144 143 145 157 169 193 190 191 208 233 209 181 200 232 252 265 277 279 258 245 259 285 290 293 300 308 310 314 317 317 314
152 142 145 149 140 153 173 183 186 182 180 177 168 156 161 173 178 178 192 205 204 216 225 215 203 209 230 253 266 280 288 286 283 287 286 285 294 298 300 300 308 315 315 319